Location: Heppenheim
(49.6410°N, 8.6370°E)
Time: 16:43:59
(UTC+02:00)

ISS - Pass Details

Date: 09 May 2026
Orbit: 414 x 424 km, 51.6° (Epoch: 21 May)

Event Time Altitude Azimuth Distance (km) Brightness Sun altitude
Rises 21:40:06 0° 212° (SSW) 2,338 0.0 -6.9°
Reaches altitude 10° 21:42:27 10° 197° (SSW) 1,480 -1.2 -7.2°
Maximum altitude 21:45:08 23° 143° (SE) 939 -2.6 -7.6°
Drops below altitude 10° 21:47:49 10° 89° (E) 1,489 -1.4 -7.9°
Sets 21:50:11 0° 74° (ENE) 2,357 -0.3 -8.2°
